Location: Unspecified
(52.4292°N, 19.3359°E)
Time: 16:25:01
(UTC+01:00)

A-11 Canister half - Pass Details

Date: 13 October 2025
Orbit: 1526 x 1682 km, 47.3° (Epoch: 13 November)

Event Time Altitude Azimuth Distance (km) Brightness Sun altitude
Exits shadow 05:59:08 10° 249° (WSW) 3,684 10.4 -10.8°
Maximum altitude 06:08:13 63° 172° (S) 1,677 9.3 -9.4°
Drops below altitude 10° 06:17:25 10° 94° (E) 3,732 12.8 -8.0°
Sets 06:20:32 0° 91° (E) 4,732 14.2 -7.5°
